Time,TemperatureF,DewpointF,PressureIn,WindDirection,WindDirectionDegrees,WindSpeedMPH,WindSpeedGustMPH,Humidity,HourlyPrecipIn,Conditions,Clouds,dailyrainin,SolarRadiationWatts/m^2,SoftwareType,DateUTC
2013-06-02 00:09:00,59.6,54.8,29.86,NNW,327,1.0,1.0,84,0.00,,,0.00,0,Wunderground v.1.15,2013-06-02 05:09:00,
2013-06-02 00:14:00,59.5,55.0,29.73,NNW,328,1.0,1.0,85,0.00,,,0.00,0,Wunderground v.1.15,2013-06-02 05:14:00,
2013-06-02 00:24:00,59.2,54.7,29.73,NNW,328,0.0,1.0,85,0.00,,,0.00,0,Wunderground v.1.15,2013-06-02 05:24:00,
2013-06-02 00:29:00,59.2,54.7,28.91,NNW,328,0.0,0.0,85,0.00,,,0.00,0,Wunderground v.1.15,2013-06-02 05:29:00,
2013-06-02 00:39:00,59.1,54.6,28.91,NNW,328,0.0,0.0,85,0.00,,,0.00,0,Wunderground v.1.15,2013-06-02 05:39:00,
2013-06-02 00:49:00,58.7,54.5,28.91,WSW,242,0.0,0.0,86,0.00,,,0.00,0,Wunderground v.1.15,2013-06-02 05:49:00,
2013-06-02 00:59:00,58.3,54.4,28.91,WSW,242,1.0,1.0,87,0.00,,,0.00,0,Wunderground v.1.15,2013-06-02 05:59:00,
2013-06-02 01:09:00,58.1,54.6,28.91,WSW,243,0.0,0.0,88,0.00,,,0.00,0,Wunderground v.1.15,2013-06-02 06:09:00,
2013-06-02 01:14:00,58.0,54.8,28.91,WSW,243,0.0,0.0,89,0.00,,,0.00,0,Wunderground v.1.15,2013-06-02 06:14:00,
2013-06-02 01:24:00,58.1,54.9,28.91,NW,316,0.0,3.0,89,0.00,,,0.00,0,Wunderground v.1.15,2013-06-02 06:24:00,
2013-06-02 01:34:00,58.6,55.1,28.91,West,275,2.0,3.0,88,0.00,,,0.00,0,Wunderground v.1.15,2013-06-02 06:34:00,
2013-06-02 01:44:00,59.1,55.2,29.09,NNW,348,2.0,3.0,87,0.00,,,0.00,0,Wunderground v.1.15,2013-06-02 06:44:00,
2013-06-02 01:49:00,59.2,55.3,29.09,NW,316,2.0,2.0,87,0.00,,,0.00,0,Wunderground v.1.15,2013-06-02 06:49:00,
2013-06-02 01:59:00,59.3,55.1,29.09,NW,317,2.0,3.0,86,0.00,,,0.00,0,Wunderground v.1.15,2013-06-02 06:59:00,
2013-06-02 02:09:00,59.4,55.2,29.18,North,355,3.0,4.0,86,0.00,,,0.00,0,Wunderground v.1.15,2013-06-02 07:09:00,
2013-06-02 02:14:00,59.5,55.3,29.18,NNW,342,3.0,6.0,86,0.00,,,0.00,0,Wunderground v.1.15,2013-06-02 07:14:00,
2013-06-02 02:24:00,59.5,55.0,29.77,WNW,300,4.0,6.0,85,0.00,,,0.00,0,Wunderground v.1.15,2013-06-02 07:24:00,
2013-06-02 02:34:00,59.6,54.8,29.77,NW,308,5.0,5.0,84,0.00,,,0.00,0,Wunderground v.1.15,2013-06-02 07:34:00,
2013-06-02 02:44:00,59.7,54.9,29.68,NNW,330,3.0,4.0,84,0.00,,,0.00,0,Wunderground v.1.15,2013-06-02 07:44:00,
2013-06-02 02:54:00,59.7,54.5,29.50,NNW,327,4.0,4.0,83,0.00,,,0.00,0,Wunderground v.1.15,2013-06-02 07:54:00,
2013-06-02 02:59:00,59.7,54.5,29.64,WNW,303,3.0,6.0,83,0.00,,,0.00,0,Wunderground v.1.15,2013-06-02 07:59:00,
2013-06-02 03:09:00,59.8,54.3,29.88,NNW,329,5.0,5.0,82,0.00,,,0.00,0,Wunderground v.1.15,2013-06-02 08:09:00,
2013-06-02 03:19:00,59.7,54.2,30.05,NW,318,2.0,2.0,82,0.00,,,0.00,0,Wunderground v.1.15,2013-06-02 08:19:00,
2013-06-02 03:24:00,59.7,54.2,30.05,NW,319,1.0,3.0,82,0.00,,,0.00,0,Wunderground v.1.15,2013-06-02 08:24:00,
2013-06-02 03:34:00,59.6,54.1,30.05,NW,317,2.0,6.0,82,0.00,,,0.00,0,Wunderground v.1.15,2013-06-02 08:34:00,
2013-06-02 03:44:00,59.6,54.1,30.03,NW,318,3.0,4.0,82,0.00,,,0.00,0,Wunderground v.1.15,2013-06-02 08:44:00,
2013-06-02 03:49:00,59.6,54.1,29.86,NW,319,3.0,3.0,82,0.00,,,0.00,0,Wunderground v.1.15,2013-06-02 08:49:00,
2013-06-02 03:59:00,59.5,54.0,29.79,WNW,302,4.0,7.0,82,0.00,,,0.00,0,Wunderground v.1.15,2013-06-02 08:59:00,
2013-06-02 04:09:00,59.3,53.8,29.87,NNE,22,5.0,8.0,82,0.00,,,0.00,0,Wunderground v.1.15,2013-06-02 09:09:00,
2013-06-02 04:14:00,59.2,53.7,29.87,North,355,5.0,9.0,82,0.00,,,0.00,0,Wunderground v.1.15,2013-06-02 09:14:00,
2013-06-02 04:24:00,59.0,53.5,29.87,NW,323,5.0,7.0,82,0.00,,,0.00,0,Wunderground v.1.15,2013-06-02 09:24:00,
2013-06-02 04:34:00,58.7,53.2,29.88,NNE,30,5.0,5.0,82,0.00,,,0.00,0,Wunderground v.1.15,2013-06-02 09:34:00,
2013-06-02 04:43:00,58.6,53.1,29.88,NNW,342,4.0,5.0,82,0.00,,,0.00,0,Wunderground v.1.15,2013-06-02 09:43:00,
2013-06-02 04:53:00,58.5,53.0,29.97,North,11,4.0,5.0,82,0.00,,,0.00,0,Wunderground v.1.15,2013-06-02 09:53:00,
2013-06-02 04:59:00,58.4,53.3,29.80,North,5,4.0,5.0,83,0.00,,,0.00,0,Wunderground v.1.15,2013-06-02 09:59:00,
2013-06-02 05:09:00,58.3,53.2,29.80,NW,314,4.0,6.0,83,0.00,,,0.00,0,Wunderground v.1.15,2013-06-02 10:09:00,
2013-06-02 05:18:00,58.2,53.1,29.97,NW,321,4.0,5.0,83,0.00,,,0.00,0,Wunderground v.1.15,2013-06-02 10:18:00,
2013-06-02 05:28:00,58.1,52.6,30.06,NW,324,5.0,5.0,82,0.00,,,0.00,0,Wunderground v.1.15,2013-06-02 10:28:00,
2013-06-02 05:33:00,58.1,52.6,30.03,NW,324,5.0,5.0,82,0.00,,,0.00,0,Wunderground v.1.15,2013-06-02 10:33:00,
2013-06-02 05:43:00,58.1,53.0,29.86,NNW,338,5.0,6.0,83,0.00,,,0.00,0,Wunderground v.1.15,2013-06-02 10:43:00,
2013-06-02 05:53:00,58.0,52.9,29.90,NNW,336,4.0,5.0,83,0.00,,,0.00,0,Wunderground v.1.15,2013-06-02 10:53:00,
2013-06-02 06:03:00,57.8,52.7,29.85,North,9,4.0,6.0,83,0.00,,,0.00,7,Wunderground v.1.15,2013-06-02 11:03:00,
2013-06-02 06:08:00,57.8,52.7,29.85,North,355,5.0,5.0,83,0.00,,,0.00,11,Wunderground v.1.15,2013-06-02 11:08:00,
2013-06-02 06:18:00,57.7,52.9,30.06,North,5,4.0,4.0,84,0.00,,,0.00,12,Wunderground v.1.15,2013-06-02 11:18:00,
2013-06-02 06:28:00,57.7,53.2,30.07,NNE,28,4.0,4.0,85,0.00,,,0.01,18,Wunderground v.1.15,2013-06-02 11:28:00,
2013-06-02 06:38:00,57.6,53.1,30.08,NW,321,3.0,3.0,85,0.00,,,0.01,18,Wunderground v.1.15,2013-06-02 11:38:00,
2013-06-02 06:43:00,57.6,53.1,30.08,NW,317,2.0,3.0,85,0.00,,,0.01,18,Wunderground v.1.15,2013-06-02 11:43:00,
2013-06-02 06:53:00,57.6,53.4,30.07,NNW,346,2.0,2.0,86,0.00,,,0.01,23,Wunderground v.1.15,2013-06-02 11:53:00,
2013-06-02 07:03:00,57.7,53.2,30.09,North,350,3.0,4.0,85,0.00,,,0.01,30,Wunderground v.1.15,2013-06-02 12:03:00,
2013-06-02 07:13:00,57.7,53.2,30.03,NW,326,3.0,3.0,85,0.00,,,0.01,35,Wunderground v.1.15,2013-06-02 12:13:00,
2013-06-02 07:18:00,57.8,53.3,30.03,NW,321,2.0,4.0,85,0.00,,,0.01,35,Wunderground v.1.15,2013-06-02 12:18:00,
2013-06-02 07:28:00,57.7,53.2,30.10,NNW,333,4.0,5.0,85,0.00,,,0.01,40,Wunderground v.1.15,2013-06-02 12:28:00,
2013-06-02 07:38:00,57.7,53.2,30.10,WNW,302,4.0,5.0,85,0.00,,,0.01,60,Wunderground v.1.15,2013-06-02 12:38:00,
2013-06-02 07:48:00,57.7,52.9,30.06,NW,311,4.0,5.0,84,0.00,,,0.01,70,Wunderground v.1.15,2013-06-02 12:48:00,
2013-06-02 07:53:00,57.7,52.9,30.09,NNW,344,4.0,5.0,84,0.00,,,0.01,90,Wunderground v.1.15,2013-06-02 12:53:00,
2013-06-02 08:03:00,57.8,53.0,30.10,NNW,333,4.0,4.0,84,0.00,,,0.01,130,Wunderground v.1.15,2013-06-02 13:03:00,
2013-06-02 08:08:00,58.0,53.2,30.10,NW,313,4.0,4.0,84,0.00,,,0.01,172,Wunderground v.1.15,2013-06-02 13:08:00,
2013-06-02 08:18:00,58.2,53.1,30.10,North,355,6.0,7.0,83,0.00,,,0.01,146,Wunderground v.1.15,2013-06-02 13:18:00,
2013-06-02 08:28:00,58.3,53.5,30.07,WNW,300,4.0,4.0,84,0.00,,,0.01,113,Wunderground v.1.15,2013-06-02 13:28:00,
2013-06-02 08:38:00,58.2,53.1,30.09,NNW,338,5.0,8.0,83,0.00,,,0.01,148,Wunderground v.1.15,2013-06-02 13:38:00,
2013-06-02 08:43:00,58.2,53.1,30.10,NW,324,5.0,8.0,83,0.00,,,0.01,162,Wunderground v.1.15,2013-06-02 13:43:00,
2013-06-02 08:53:00,58.2,52.7,30.11,NNW,339,5.0,7.0,82,0.00,,,0.01,171,Wunderground v.1.15,2013-06-02 13:53:00,
2013-06-02 09:03:00,58.4,52.9,30.11,NW,304,5.0,5.0,82,0.00,,,0.01,146,Wunderground v.1.15,2013-06-02 14:03:00,
2013-06-02 09:13:00,58.4,52.9,30.11,NNW,334,5.0,7.0,82,0.00,,,0.01,128,Wunderground v.1.15,2013-06-02 14:13:00,
2013-06-02 09:23:00,58.4,53.3,30.12,WNW,302,3.0,6.0,83,0.00,,,0.01,118,Wunderground v.1.15,2013-06-02 14:23:00,
2013-06-02 09:28:00,58.4,52.9,30.12,NW,323,4.0,4.0,82,0.00,,,0.01,151,Wunderground v.1.15,2013-06-02 14:28:00,
2013-06-02 09:38:00,58.5,53.0,30.12,NNW,340,5.0,6.0,82,0.00,,,0.01,153,Wunderground v.1.15,2013-06-02 14:38:00,
2013-06-02 09:43:00,58.7,52.9,30.12,NNW,342,5.0,8.0,81,0.00,,,0.01,155,Wunderground v.1.15,2013-06-02 14:43:00,
2013-06-02 09:53:00,58.6,52.8,30.12,NW,326,5.0,6.0,81,0.00,,,0.01,199,Wunderground v.1.15,2013-06-02 14:53:00,
2013-06-02 10:03:00,58.6,52.4,30.13,NNW,344,6.0,7.0,80,0.00,,,0.01,213,Wunderground v.1.15,2013-06-02 15:03:00,
2013-06-02 10:08:00,58.6,52.8,30.12,NW,316,6.0,7.0,81,0.00,,,0.01,176,Wunderground v.1.15,2013-06-02 15:08:00,
2013-06-02 10:18:00,58.7,53.2,30.10,WNW,302,4.0,4.0,82,0.00,,,0.01,200,Wunderground v.1.15,2013-06-02 15:18:00,
2013-06-02 10:28:00,59.0,53.2,30.11,NW,317,4.0,4.0,81,0.00,,,0.01,148,Wunderground v.1.15,2013-06-02 15:28:00,
2013-06-02 10:38:00,59.1,52.6,30.11,NW,322,6.0,6.0,79,0.00,,,0.01,258,Wunderground v.1.15,2013-06-02 15:38:00,
2013-06-02 10:48:00,59.4,53.2,30.11,NW,319,6.0,6.0,80,0.00,,,0.01,253,Wunderground v.1.15,2013-06-02 15:48:00,
2013-06-02 10:53:00,59.5,53.3,29.86,NNW,333,6.0,6.0,80,0.00,,,0.01,272,Wunderground v.1.15,2013-06-02 15:53:00,
2013-06-02 11:03:00,60.0,53.5,29.94,NNW,333,5.0,7.0,79,0.00,,,0.01,336,Wunderground v.1.15,2013-06-02 16:03:00,
2013-06-02 11:08:00,60.3,53.4,29.94,NNW,333,5.0,8.0,78,0.00,,,0.01,394,Wunderground v.1.15,2013-06-02 16:08:00,
2013-06-02 11:18:00,60.4,53.2,29.94,NNW,338,6.0,7.0,77,0.00,,,0.01,362,Wunderground v.1.15,2013-06-02 16:18:00,
2013-06-02 11:28:00,60.2,53.0,29.79,NNW,339,6.0,6.0,77,0.00,,,0.01,264,Wunderground v.1.15,2013-06-02 16:28:00,
2013-06-02 11:33:00,60.2,53.3,29.77,NNW,345,6.0,6.0,78,0.00,,,0.01,272,Wunderground v.1.15,2013-06-02 16:33:00,
2013-06-02 11:43:00,60.0,53.5,30.00,NW,313,5.0,5.0,79,0.00,,,0.01,323,Wunderground v.1.15,2013-06-02 16:43:00,
2013-06-02 11:53:00,60.1,53.2,30.08,NNE,22,6.0,8.0,78,0.00,,,0.01,287,Wunderground v.1.15,2013-06-02 16:53:00,
2013-06-02 12:02:00,60.3,53.4,30.08,NNW,327,5.0,7.0,78,0.00,,,0.01,243,Wunderground v.1.15,2013-06-02 17:02:00,
2013-06-02 12:08:00,60.3,53.8,30.06,NNW,331,5.0,6.0,79,0.00,,,0.01,366,Wunderground v.1.15,2013-06-02 17:08:00,
2013-06-02 12:18:00,60.9,54.3,30.04,NNW,328,5.0,5.0,79,0.00,,,0.01,483,Wunderground v.1.15,2013-06-02 17:18:00,
2013-06-02 12:23:00,61.3,54.0,30.10,NW,320,4.0,5.0,77,0.00,,,0.01,443,Wunderground v.1.15,2013-06-02 17:23:00,
2013-06-02 12:33:00,61.4,53.4,30.08,NW,317,5.0,10.0,75,0.00,,,0.01,425,Wunderground v.1.15,2013-06-02 17:33:00,
2013-06-02 12:42:00,61.6,54.0,30.03,NW,311,5.0,6.0,76,0.00,,,0.01,550,Wunderground v.1.15,2013-06-02 17:42:00,
2013-06-02 12:47:00,62.2,54.2,30.05,NW,317,4.0,4.0,75,0.00,,,0.01,483,Wunderground v.1.15,2013-06-02 17:47:00,
2013-06-02 12:57:00,61.8,53.8,30.15,NW,304,6.0,6.0,75,0.00,,,0.01,163,Wunderground v.1.15,2013-06-02 17:57:00,
2013-06-02 13:07:00,60.8,53.9,30.13,NW,322,5.0,5.0,78,0.00,,,0.01,185,Wunderground v.1.15,2013-06-02 18:07:00,
2013-06-02 13:12:00,60.5,54.0,30.15,North,355,4.0,5.0,79,0.00,,,0.01,320,Wunderground v.1.15,2013-06-02 18:12:00,
2013-06-02 20:43:00,61.3,52.6,30.09,NE,36,2.0,4.0,73,0.00,,,0.01,0,Wunderground v.1.15,2013-06-03 01:43:00,
2013-06-02 20:52:00,61.1,52.4,30.11,NNE,26,2.0,2.0,73,0.00,,,0.01,0,Wunderground v.1.15,2013-06-03 01:52:00,
2013-06-02 21:02:00,60.8,52.1,30.09,North,10,1.0,2.0,73,0.00,,,0.01,0,Wunderground v.1.15,2013-06-03 02:02:00,
2013-06-02 21:08:00,60.6,51.9,30.10,NE,46,2.0,3.0,73,0.00,,,0.01,0,Wunderground v.1.15,2013-06-03 02:08:00,
2013-06-02 21:47:00,59.1,51.2,30.05,NNE,32,0.0,0.0,75,0.00,,,0.01,0,Wunderground v.1.15,2013-06-03 02:47:00,
2013-06-02 21:57:00,58.7,51.5,30.11,NNE,31,0.0,0.0,77,0.00,,,0.01,0,Wunderground v.1.15,2013-06-03 02:57:00,
2013-06-02 22:02:00,58.3,51.5,30.06,NNE,31,1.0,1.0,78,0.00,,,0.01,0,Wunderground v.1.15,2013-06-03 03:02:00,
2013-06-02 22:12:00,57.7,51.2,30.12,NNE,31,0.0,1.0,79,0.00,,,0.01,0,Wunderground v.1.15,2013-06-03 03:12:00,
2013-06-02 22:22:00,57.3,50.8,30.07,NNE,31,0.0,0.0,79,0.00,,,0.01,0,Wunderground v.1.15,2013-06-03 03:22:00,
2013-06-02 22:32:00,56.9,50.8,30.13,NNE,31,0.0,0.0,80,0.00,,,0.01,0,Wunderground v.1.15,2013-06-03 03:32:00,
2013-06-02 22:37:00,56.7,50.6,30.13,NNE,31,0.0,0.0,80,0.00,,,0.01,0,Wunderground v.1.15,2013-06-03 03:37:00,
2013-06-02 22:47:00,56.3,50.2,30.09,NNE,31,0.0,0.0,80,0.00,,,0.01,0,Wunderground v.1.15,2013-06-03 03:47:00,
2013-06-02 22:57:00,56.0,49.9,30.08,NNE,31,0.0,0.0,80,0.00,,,0.01,0,Wunderground v.1.15,2013-06-03 03:57:00,
2013-06-02 23:02:00,55.9,50.2,30.10,NNE,31,0.0,0.0,81,0.00,,,0.01,0,Wunderground v.1.15,2013-06-03 04:02:00,
2013-06-02 23:07:00,55.7,50.0,30.08,NNE,31,0.0,0.0,81,0.00,,,0.01,0,Wunderground v.1.15,2013-06-03 04:07:00,
2013-06-02 23:12:00,55.7,50.0,30.10,NNE,31,0.0,0.0,81,0.00,,,0.01,0,Wunderground v.1.15,2013-06-03 04:12:00,
2013-06-02 23:17:00,55.5,50.1,30.12,NNE,31,0.0,0.0,82,0.00,,,0.01,0,Wunderground v.1.15,2013-06-03 04:17:00,
2013-06-02 23:22:00,55.4,49.7,30.08,NNE,31,0.0,0.0,81,0.00,,,0.01,0,Wunderground v.1.15,2013-06-03 04:22:00,
2013-06-02 23:32:00,55.3,49.6,30.10,NNE,31,0.0,0.0,81,0.00,,,0.01,0,Wunderground v.1.15,2013-06-03 04:32:00,
2013-06-02 23:42:00,55.4,49.7,30.12,NNE,31,0.0,0.0,81,0.00,,,0.01,0,Wunderground v.1.15,2013-06-03 04:42:00,
2013-06-02 23:52:00,55.3,49.6,30.10,NNE,31,0.0,0.0,81,0.00,,,0.01,0,Wunderground v.1.15,2013-06-03 04:52:00,
2013-06-02 23:57:00,55.2,49.1,30.12,NNE,31,0.0,0.0,80,0.00,,,0.01,0,Wunderground v.1.15,2013-06-03 04:57:00,